Weather History for LEBZ - June, 2013

Change the Weather History Date:

Friday, June 28, 2013

  Actual Average Record
Temperature  
Mean Temperature 83 °F -  
Max Temperature 98 °F - - ()
Min Temperature 68 °F - - ()
Cooling Degree Days 18    
Growing Degree Days 33 (Base 50)    
Moisture  
Dew Point 48 °F    
Average Humidity 30    
Maximum Humidity 60    
Minimum Humidity 13    
Precipitation  
Precipitation 0.00 in 0.01 in - ()
Sea Level Pressure  
Sea Level Pressure 30.07 in    
Wind  
Wind Speed 4 mph ()    
Max Wind Speed 12 mph    
Max Gust Speed -    
Visibility 12.0 miles    
Events      
T = Trace of Precipitation, MM = Missing Value Source: Averaged Metar Reports

Daily Weather History Graph

Daily Weather History Graph

Search for Another Location

Airport or City:

Trip Planner

Search our weather history database for the weather conditions in past years. The results will help you decide how hot, cold, wet, or windy it might be!

Date:

Astronomy

Jun. 28, 2013 Rise Set
Actual Time 7:04 AM CEST 9:56 PM CEST
Civil Twilight 6:32 AM CEST 10:28 PM CEST
Nautical Twilight 5:52 AM CEST 11:08 PM CEST
Astronomical Twilight 5:05 AM CEST 11:55 PM CEST
Moon 12:49 AM CEST (6/28) 12:53 PM CEST (6/28)
Length of Visible Light 15h 56m
Length of Day
14h 52m
Waning Gibbous, 69% of the Moon is Illuminated
Jun 28
Waning Gibbous
Jun 30
Last Quarter
Jul 8
New
Jul 16
First Quarter
Jul 22
Full

Hourly Weather History & Observations

Time (CEST) Temp. Dew Point Humidity Pressure Visibility Wind Dir Wind Speed Gust Speed Precip Events Conditions
6:00 AM 68.0 °F 51.8 °F 56% 30.06 in - WNW 4.6 mph - N/A   Clear
7:00 AM 66.2 °F 51.8 °F 60% 30.06 in - WNW 3.5 mph - N/A   Clear
8:00 AM 72 °F 54 °F 43% 30.07 in 12 mi WNW 3.5 mph - -   Mostly Cloudy
8:00 AM 68.0 °F 50.0 °F 52% 30.09 in - Variable 2.3 mph - N/A   Clear
9:00 AM 73.4 °F 46.4 °F 38% 30.09 in - West 5.8 mph - N/A   Clear
10:00 AM 77.0 °F 50.0 °F 39% 30.12 in - West 6.9 mph - N/A   Clear
11:00 AM 80.6 °F 50.0 °F 34% 30.12 in - West 4.6 mph - N/A   Clear
12:00 PM 84.2 °F 51.8 °F 33% 30.12 in - Variable 2.3 mph - N/A   Clear
1:00 PM 87.8 °F 50.0 °F 27% 30.09 in - West 3.5 mph - N/A   Clear
2:00 PM 92 °F 64 °F 29% 30.07 in 12 mi West 6.9 mph - -  
2:00 PM 93.2 °F 48.2 °F 21% 30.09 in - West 5.8 mph - N/A   Clear
3:00 PM 95.0 °F 41.0 °F 15% 30.09 in - WNW 9.2 mph - N/A   Clear
4:00 PM 95.0 °F 41.0 °F 15% 30.06 in - WNW 11.5 mph - N/A   Clear
5:00 PM 96.8 °F 39.2 °F 14% 30.06 in - WNW 8.1 mph - N/A   Clear
6:00 PM 96.8 °F 39.2 °F 14% 30.06 in - North 6.9 mph - N/A   Clear
7:00 PM 96.8 °F 37.4 °F 13% 30.04 in - NW 6.9 mph - N/A   Clear
8:00 PM 96 °F 58 °F 19% 30.01 in 12 mi NW 3.5 mph - -  
8:00 PM 95.0 °F 41.0 °F 15% 30.04 in - Variable 2.3 mph - N/A   Clear
9:00 PM 93.2 °F 51.8 °F 24% 30.04 in - Variable 2.3 mph - N/A   Clear